Weather in Kremidovka

Ukraine / Odesa District     46°43′56″N   30°47′09″E
temp.,
°C
wind,
m/s
gust,
m/s
humid.,
%
clouds,
%
prec.,
mm/h
press.,
hPa
HPBL,
m
22 april, thu
thu2200:00+9sw378168 0.0 1018123
03:00+9sw358147 0.0 101894
06:00+8s34855 0.0 101953
09:00+13s56645 0.0 1020435
12:00+16sse665221 0.2 10201276
15:00+17sse774667 0.9 10191473
18:00+15sse686143 0.6 1019460
21:00+11s6137343 0.9 1019347
23 april, fri
fri2300:00+11s51374100 0.0 1018335
03:00+10s5127966 0.0 1018317
06:00+9s4992100 0.0 1017214
09:00+12ssw6977100 0.8 1017490
12:00+17sw4653100 0.0 10161362
15:00+11wnw3581100 4.8 1017271
18:00+10nw4688100 4.3 1017547
21:00+7n5984100 4.6 1019465
24 april, sat
sat2400:00+5nw47930 0.0 1020231
03:00+5wnw38910 0.0 1020181
06:00+4nw36840 0.0 1020114
09:00+9wnw58595 0.0 1021696
12:00+11nw9954100 0.0 10221739
15:00+11wnw7103988 0.0 10222140
18:00+11nw69325 0.0 10222121
21:00+7nnw33490 0.0 102461
25 april, sun
sun2500:00+6wnw11511 0.0 102414
03:00+5wsw22535 0.0 102414
06:00+4w11542 0.0 102310
09:00+10ssw34415 0.0 1023416
12:00+13s55365 0.0 10221714
15:00+13s674271 0.0 10201615
18:00+12ssw5647100 0.0 10191330
21:00+9ssw585698 0.1 1020259
26 april, mon
mon2600:00+8wsw4873100 1.6 1020422
03:00+6nnw6984100 1.6 1020620
06:00+5nw378444 0.4 1020353
09:00+8nnw57500 0.4 1021850
12:00+11nw56363 0.0 10211800
15:00+13wnw673262 0.0 10202431
18:00+13wnw583326 0.0 10192423
21:00+8n245292 0.0 102074